EW5168 Weather Reports


Display with metric or nautical units.
time (UTC)temp
F
wind
direction
speed
MPH
gust
MPH
rain 1hr
in
rain 24hr
in
rain mn
in
humidity
%
barometer
mb
20260905170739 93 192 3.0 11.0 0.00 0.00 0.00 24 1014.6
20260905170239 92 200 2.0 9.0 0.00 0.00 0.00 24 1014.6
20260905165737 92 147 3.0 11.0 0.00 0.00 0.00 23 1014.6
20260905165236 92 177 2.0 11.0 0.00 0.00 0.00 21 1014.6
20260905164740 91 205 2.0 5.0 0.00 0.00 0.00 16 1014.7
20260905164736 91 169 2.0 6.0 0.00 0.00 0.00 17 1014.7
20260905163737 91 196 2.0 8.0 0.00 0.00 0.00 15 1014.7
20260905163237 91 172 3.0 8.0 0.00 0.00 0.00 15 1014.7
20260905162737 91 162 2.0 6.0 0.00 0.00 0.00 14 1014.8
20260905162234 90 246 2.0 8.0 0.00 0.00 0.00 13 1014.7
20260905161739 90 227 3.0 10.0 0.00 0.00 0.00 11 1014.7
20260905161735 90 184 3.0 10.0 0.00 0.00 0.00 9 1014.7
20260905160738 90 155 3.0 9.0 0.00 0.00 0.00 6 1014.7
20260905160236 89 158 3.0 9.0 0.00 0.00 0.00 5 1014.7
20260905155734 89 181 2.0 9.0 0.00 0.00 0.00 1 1014.7
20260905155239 88 217 3.0 9.0 0.00 0.00 0.00 1 1014.8
20260905155235 89 169 2.0 9.0 0.00 0.00 0.00 1 1014.7
20260905154838 88 242 3.0 9.0 0.00 0.00 0.00 1 1014.7
20260905153732 87 119 2.0 8.0 0.00 0.00 0.00 1 1014.8
20260905153237 87 245 2.0 10.0 0.00 0.00 0.00 1 1014.8
20260905153233 87 227 2.0 7.0 0.00 0.00 0.00 1 1014.8
20260905152232 87 188 2.0 10.0 0.00 0.00 0.00 1 1014.8
20260905151732 86 153 2.0 5.0 0.00 0.00 0.00 1 1014.8
20260905151233 85 211 3.0 7.0 0.00 0.00 0.00 1 1014.8
20260905150732 85 156 3.0 7.0 0.00 0.00 0.00 1 1014.9
20260905150231 85 225 2.0 5.0 0.00 0.00 0.00 1 1014.8
20260905145730 84 223 3.0 7.0 0.00 0.00 0.00 1 1014.7
20260905145230 83 202 3.0 7.0 0.00 0.00 0.00 1 1014.7
20260905144730 83 227 2.0 8.0 0.00 0.00 0.00 1 1014.6
20260905144231 82 150 2.0 8.0 0.00 0.00 0.00 1 1014.7
20260905143730 82 238 2.0 4.0 0.00 0.00 0.00 1 1014.7
20260905143231 82 192 2.0 5.0 0.00 0.00 0.00 1 1014.7
20260905142731 81 178 1.0 5.0 0.00 0.00 0.00 1 1014.7
20260905142232 81 203 2.0 6.0 0.00 0.00 0.00 1 1014.7
20260905141730 81 167 3.0 6.0 0.00 0.00 0.00 1 1014.7
20260905141229 80 186 3.0 6.0 0.00 0.00 0.00 1 1014.7
20260905140730 80 153 3.0 6.0 0.00 0.00 0.00 1 1014.7
20260905140230 80 193 1.0 5.0 0.00 0.00 0.00 1 1014.7
20260905135731 79 151 1.0 3.0 0.00 0.00 0.00 1 1014.7
20260905135234 79 223 1.0 4.0 0.00 0.00 0.00 1 1014.7
20260905135230 79 198 1.0 4.0 0.00 0.00 0.00 1 1014.7
20260905134229 78 163 1.0 4.0 0.00 0.00 0.00 1 1014.5
20260905133726 78 163 1.0 4.0 0.00 0.00 0.00 1 1014.5
20260905133226 78 163 1.0 4.0 0.00 0.00 0.00 1 1014.6
20260905132727 78 177 0.0 4.0 0.00 0.00 0.00 1 1014.6
20260905132230 77 170 0.0 0.0 0.00 0.00 0.00 1 1014.6
20260905132226 78 170 0.0 2.0 0.00 0.00 0.00 1 1014.5
20260905131229 76 170 0.0 0.0 0.00 0.00 0.00 1 1014.4
20260905131224 77 170 0.0 0.0 0.00 0.00 0.00 1 1014.6
20260905130224 76 170 0.0 0.0 0.00 0.00 0.00 1 1014.3
20260905125725 76 171 0.0 0.0 0.00 0.00 0.00 1 1014.3
20260905125224 76 171 0.0 0.0 0.00 0.00 0.00 1 1014.2
20260905124722 76 171 0.0 0.0 0.00 0.00 0.00 1 1014.2
20260905124224 76 171 0.0 1.0 0.00 0.00 0.00 1 1014.1
20260905123721 76 171 0.0 1.0 0.00 0.00 0.00 1 1014.0
20260905123226 76 171 1.0 3.0 0.00 0.00 0.00 1 1013.7
20260905123222 76 171 0.0 1.0 0.00 0.00 0.00 1 1013.9
20260905122225 76 162 1.0 2.0 0.00 0.00 0.00 1 1013.6
20260905122221 76 171 1.0 3.0 0.00 0.00 0.00 1 1013.7
20260905121218 76 161 1.0 2.0 0.00 0.00 0.00 1 1013.6
20260905120718 76 161 0.0 1.0 0.00 0.00 0.00 1 1013.6
20260905120216 76 161 0.0 1.0 0.00 0.00 0.00 1 1013.5
20260905115716 76 161 0.0 1.0 0.00 0.00 0.00 1 1013.5
20260905115217 76 161 0.0 0.0 0.00 0.00 0.00 1 1013.4
20260905114719 76 161 0.0 0.0 0.00 0.00 0.00 1 1013.3
20260905114715 76 161 0.0 0.0 0.00 0.00 0.00 1 1013.4
20260905113714 76 161 0.0 0.0 0.00 0.00 0.00 1 1013.3
20260905113212 76 161 0.0 0.0 0.00 0.00 0.00 1 1013.3
20260905112712 76 161 0.0 0.0 0.00 0.00 0.00 1 1013.4
20260905112212 76 161 0.0 0.0 0.00 0.00 0.00 1 1013.3
20260905111712 76 161 0.0 0.0 0.00 0.00 0.00 1 1013.3
20260905111210 76 161 0.0 0.0 0.00 0.00 0.00 1 1013.3
20260905110710 76 161 0.0 0.0 0.00 0.01 0.00 1 1013.3
20260905110216 76 161 0.0 0.0 0.00 0.01 0.00 1 1013.3
20260905110212 76 161 0.0 0.0 0.00 0.01 0.00 1 1013.3
20260905105814 76 161 0.0 0.0 0.00 0.01 0.00 1 1013.3
20260905104706 76 161 0.0 0.0 0.00 0.01 0.00 1 1013.2
20260905104206 76 161 0.0 1.0 0.00 0.01 0.00 1 1013.3
20260905103705 77 161 0.0 1.0 0.00 0.01 0.00 1 1013.3
20260905103205 77 161 0.0 2.0 0.00 0.01 0.00 1 1013.3
20260905102705 77 161 1.0 3.0 0.00 0.01 0.00 1 1013.2
20260905102206 77 161 1.0 3.0 0.00 0.01 0.00 1 1013.2
20260905101706 77 194 1.0 5.0 0.00 0.01 0.00 1 1013.2
20260905101206 77 188 2.0 5.0 0.00 0.01 0.00 1 1013.2
20260905100705 77 160 2.0 5.0 0.00 0.01 0.00 1 1013.2
20260905100206 77 177 2.0 5.0 0.00 0.01 0.00 1 1013.2
20260905100202 77 198 1.0 3.0 0.00 0.01 0.00 1 1013.2
20260905095202 77 150 1.0 4.0 0.00 0.01 0.00 1 1013.3
20260905094702 77 175 2.0 5.0 0.00 0.01 0.00 1 1013.2
20260905094201 77 213 2.0 5.0 0.00 0.01 0.00 1 1013.2
20260905093700 77 165 2.0 5.0 0.00 0.01 0.00 1 1013.2
20260905093200 77 152 1.0 4.0 0.00 0.01 0.00 1 1013.1
20260905092700 77 202 1.0 5.0 0.00 0.01 0.00 1 1013.0
20260905092202 77 142 2.0 5.0 0.00 0.01 0.00 1 1013.0
20260905091659 77 158 2.0 5.0 0.00 0.01 0.00 1 1013.1
20260905091200 78 165 2.0 5.0 0.00 0.01 0.00 1 1013.1
20260905090700 78 179 2.0 4.0 0.00 0.01 0.00 1 1013.2
20260905090203 78 206 1.0 4.0 0.00 0.01 0.00 1 1013.2
20260905090159 78 157 1.0 4.0 0.00 0.01 0.00 1 1013.1
20260905085158 78 213 1.0 3.0 0.00 0.01 0.00 1 1013.0
20260905084658 78 167 1.0 4.0 0.00 0.01 0.00 1 1013.1
20260905084158 78 184 1.0 4.0 0.00 0.01 0.00 1 1013.0
20260905083659 78 197 2.0 5.0 0.00 0.01 0.00 1 1013.0
20260905083655 78 180 1.0 5.0 0.00 0.01 0.00 1 1013.0
20260905082653 78 198 2.0 4.0 0.00 0.01 0.00 1 1013.0
20260905082157 78 191 2.0 5.0 0.00 0.01 0.00 1 1013.0
20260905082153 78 178 2.0 5.0 0.00 0.01 0.00 1 1013.0
20260905081759 78 163 2.0 5.0 0.00 0.01 0.00 1 1013.0
20260905080654 78 236 2.0 5.0 0.00 0.01 0.00 1 1013.1
20260905080650 78 170 2.0 5.0 0.00 0.01 0.00 1 1013.1
20260905075646 78 200 2.0 5.0 0.00 0.01 0.00 1 1013.2
20260905075146 78 226 2.0 4.0 0.00 0.01 0.00 1 1013.2
20260905074645 78 184 1.0 4.0 0.00 0.01 0.00 1 1013.2
20260905074147 78 207 2.0 4.0 0.00 0.01 0.00 1 1013.3
20260905073646 78 194 2.0 5.0 0.00 0.01 0.00 1 1013.3
20260905073145 78 172 2.0 5.0 0.00 0.01 0.00 1 1013.4
20260905072645 78 209 2.0 5.0 0.00 0.01 0.00 1 1013.4
20260905072144 78 155 2.0 5.0 0.00 0.01 0.00 1 1013.3
20260905071641 78 166 2.0 5.0 0.00 0.01 0.00 1 1013.4
20260905071145 79 201 2.0 4.0 0.00 0.01 0.00 1 1013.2
20260905071141 78 159 2.0 5.0 0.00 0.01 0.00 1 1013.2
20260905070140 79 192 1.0 4.0 0.00 0.01 0.00 1 1013.3
20260905065641 79 197 1.0 4.0 0.00 0.01 0.00 1 1013.3
20260905065141 79 184 1.0 3.0 0.00 0.01 0.00 1 1013.3
20260905064642 79 180 1.0 3.0 0.00 0.01 0.00 1 1013.4
20260905064142 79 155 0.0 3.0 0.00 0.01 0.00 1 1013.4
20260905063641 79 186 0.0 3.0 0.00 0.01 0.00 1 1013.5
20260905063145 79 197 0.0 2.0 0.00 0.01 0.00 1 1013.5
20260905063141 79 186 0.0 3.0 0.00 0.01 0.00 1 1013.6
20260905062141 79 160 1.0 3.0 0.00 0.01 0.00 1 1013.6
20260905061639 79 160 1.0 4.0 0.00 0.01 0.00 1 1013.6
20260905061139 80 186 1.0 4.0 0.00 0.01 0.00 1 1013.6
20260905060639 80 188 0.0 2.0 0.00 0.01 0.00 1 1013.6
20260905060141 80 184 1.0 3.0 0.00 0.01 0.00 1 1013.6
20260905055638 80 184 1.0 5.0 0.00 0.01 0.00 1 1013.6
20260905055138 80 167 1.0 5.0 0.00 0.01 0.00 1 1013.5
20260905054637 80 148 2.0 6.0 0.00 0.01 0.00 1 1013.5
20260905054137 80 161 1.0 6.0 0.00 0.01 0.00 1 1013.4
20260905053637 80 116 1.0 3.0 0.00 0.01 0.00 1 1013.4
20260905053137 80 186 1.0 4.0 0.00 0.01 0.00 1 1013.5
20260905052637 80 170 1.0 4.0 0.00 0.01 0.00 1 1013.5
20260905052137 81 184 1.0 3.0 0.00 0.01 0.00 1 1013.4
20260905051635 81 189 1.0 4.0 0.00 0.01 0.00 1 1013.5
20260905051136 81 148 1.0 4.0 0.00 0.01 0.00 1 1013.5
20260905050634 81 169 1.0 3.0 0.00 0.01 0.00 1 1013.5
20260905050132 81 171 1.0 3.0 0.00 0.01 0.00 1 1013.5
20260905045630 81 162 1.0 5.0 0.00 0.01 0.01 1 1013.6
20260905045128 81 156 1.0 5.0 0.00 0.01 0.01 1 1013.7
20260905044633 81 178 2.0 6.0 0.00 0.01 0.01 1 1013.6
20260905044629 81 189 2.0 6.0 0.00 0.01 0.01 1 1013.6
20260905044234 82 186 1.0 5.0 0.00 0.01 0.01 1 1013.7
20260905043129 82 199 1.0 4.0 0.00 0.01 0.01 1 1013.6
20260905042629 82 211 1.0 4.0 0.00 0.01 0.01 1 1013.6
20260905042625 82 148 1.0 4.0 0.00 0.01 0.01 1 1013.6
20260905042232 82 165 1.0 4.0 0.00 0.01 0.01 1 1013.5
20260905041124 82 183 1.0 5.0 0.00 0.01 0.01 1 1013.5
20260905040622 82 145 2.0 5.0 0.00 0.01 0.01 1 1013.6
20260905040120 83 150 2.0 5.0 0.00 0.01 0.01 1 1013.6
20260905035620 83 211 2.0 5.0 0.00 0.01 0.01 1 1013.5
20260905035121 83 148 1.0 5.0 0.00 0.01 0.01 1 1013.5
20260905034620 83 184 2.0 5.0 0.00 0.01 0.01 1 1013.6
20260905034124 83 146 2.0 5.0 0.00 0.01 0.01 1 1013.6
20260905034120 83 153 2.0 8.0 0.00 0.01 0.01 1 1013.6
20260905033118 83 216 2.0 8.0 0.00 0.01 0.01 1 1013.6
20260905032618 83 166 2.0 6.0 0.00 0.01 0.01 1 1013.6
20260905032614 84 209 1.0 5.0 0.00 0.01 0.01 1 1013.5
20260905032218 83 206 2.0 6.0 0.00 0.01 0.01 1 1013.6
20260905031716 84 168 2.0 6.0 0.00 0.01 0.01 1 1013.5
20260905030613 84 190 2.0 5.0 0.00 0.01 0.01 1 1013.5
20260905030113 84 167 1.0 5.0 0.00 0.01 0.01 1 1013.4
20260905025612 84 200 1.0 4.0 0.00 0.01 0.01 1 1013.4
20260905025114 84 202 1.0 6.0 0.00 0.01 0.01 1 1013.4
20260905025110 84 188 2.0 6.0 0.00 0.01 0.01 1 1013.3
20260905024109 84 189 2.0 6.0 0.00 0.01 0.01 1 1013.3
20260905023606 85 158 2.0 6.0 0.00 0.01 0.01 1 1013.3
20260905023104 85 185 2.0 6.0 0.00 0.01 0.01 1 1013.2
20260905022604 85 196 2.0 6.0 0.00 0.01 0.01 1 1013.1
20260905022105 85 179 2.0 7.0 0.00 0.01 0.01 1 1013.0
20260905021608 85 157 2.0 7.0 0.00 0.01 0.01 1 1012.9
20260905021604 85 156 2.0 7.0 0.00 0.01 0.01 1 1012.9
20260905020606 86 166 2.0 6.0 0.00 0.01 0.01 4 1012.8
20260905020602 85 167 2.0 7.0 0.00 0.01 0.01 1 1012.8
20260905020207 86 144 2.0 6.0 0.00 0.01 0.01 7 1012.9
20260905015104 86 202 2.0 5.0 0.00 0.01 0.01 13 1012.7
20260905015100 86 168 2.0 6.0 0.00 0.01 0.01 10 1012.7
20260905014100 87 150 2.0 6.0 0.00 0.01 0.01 15 1012.6
20260905013559 87 170 2.0 7.0 0.00 0.01 0.01 17 1012.5
20260905013100 87 149 3.0 7.0 0.00 0.01 0.01 19 1012.5
20260905012601 87 120 3.0 7.0 0.00 0.01 0.01 21 1012.5
20260905012057 87 203 2.0 8.0 0.00 0.01 0.01 23 1012.4
20260905011556 88 213 2.0 8.0 0.00 0.01 0.01 25 1012.3
20260905011056 88 184 2.0 8.0 0.00 0.01 0.01 26 1012.3
20260905010556 88 216 3.0 8.0 0.00 0.01 0.01 28 1012.2
20260905010056 88 126 2.0 7.0 0.00 0.01 0.01 29 1012.1
20260905005554 89 157 3.0 7.0 0.00 0.01 0.01 30 1012.0
20260905005052 89 149 3.0 8.0 0.00 0.01 0.01 31 1012.0
20260905004550 89 146 4.0 10.0 0.00 0.01 0.01 32 1012.1
20260905004050 89 154 3.0 10.0 0.00 0.01 0.01 33 1011.9
20260905003551 90 211 3.0 12.0 0.00 0.01 0.01 34 1011.8
20260905003050 90 196 3.0 12.0 0.00 0.01 0.01 35 1011.7
20260905002548 91 186 3.0 12.0 0.00 0.01 0.01 36 1011.8
20260905002046 91 143 3.0 9.0 0.00 0.01 0.01 37 1011.7
20260905001546 91 141 4.0 11.0 0.00 0.01 0.01 37 1011.6
20260905001046 92 135 4.0 11.0 0.00 0.01 0.01 38 1011.6
20260905000550 93 192 4.0 12.0 0.00 0.01 0.01 37 1011.4
20260905000545 92 192 4.0 12.0 0.00 0.01 0.01 37 1011.5
20260905000151 93 189 3.0 12.0 0.00 0.01 0.01 37 1011.4
20260904235044 93 157 2.0 8.0 0.00 0.01 0.01 37 1011.3
20260904234544 94 156 2.0 10.0 0.00 0.01 0.01 37 1011.3
20260904234148 94 198 3.0 9.0 0.00 0.01 0.01 36 1011.3
20260904234047 94 201 2.0 8.0 0.00 0.01 0.01 36 1011.4
20260904234042 94 153 2.0 10.0 0.00 0.01 0.01 36 1011.5
20260904232541 94 136 3.0 12.0 0.00 0.01 0.01 36 1011.3
20260904232042 94 198 2.0 12.0 0.00 0.01 0.01 36 1011.3
20260904231539 94 80 2.0 7.0 0.00 0.01 0.01 36 1011.2
20260904231040 94 104 2.0 7.0 0.00 0.01 0.01 36 1011.2
20260904230538 95 156 2.0 8.0 0.00 0.01 0.01 35 1011.3
20260904230042 95 120 3.0 9.0 0.00 0.01 0.01 35 1011.3
20260904230038 95 219 2.0 8.0 0.00 0.01 0.01 35 1011.2
20260904225037 95 159 3.0 9.0 0.00 0.01 0.01 34 1011.3
20260904224537 95 230 3.0 13.0 0.00 0.01 0.01 35 1011.3
20260904224038 95 182 3.0 13.0 0.00 0.01 0.01 34 1011.4
20260904223538 95 355 3.0 12.0 0.00 0.01 0.01 35 1011.4
20260904223039 95 180 4.0 12.0 0.00 0.01 0.01 35 1011.4
20260904222537 95 113 4.0 10.0 0.00 0.01 0.01 35 1011.4
20260904222037 95 178 4.0 11.0 0.00 0.01 0.01 35 1011.4
20260904221538 95 162 3.0 11.0 0.00 0.01 0.01 35 1011.5
20260904221038 95 136 3.0 10.0 0.00 0.01 0.01 35 1011.4
20260904220537 96 208 3.0 10.0 0.00 0.01 0.01 35 1011.6
20260904220038 96 116 3.0 10.0 0.00 0.01 0.01 35 1011.7
20260904215538 96 89 4.0 11.0 0.00 0.01 0.01 35 1011.7
20260904215038 96 149 3.0 11.0 0.00 0.01 0.01 35 1011.7
20260904214538 96 60 4.0 10.0 0.00 0.01 0.01 34 1011.7
20260904214035 96 171 4.0 11.0 0.00 0.01 0.01 34 1011.8
20260904213535 96 167 4.0 11.0 0.00 0.01 0.01 34 1011.8
20260904213034 96 122 3.0 10.0 0.00 0.01 0.01 34 1011.9
20260904212533 96 188 4.0 10.0 0.00 0.01 0.01 34 1011.9
20260904212033 96 171 4.0 9.0 0.00 0.01 0.01 34 1012.0
20260904211533 96 107 2.0 7.0 0.00 0.01 0.01 34 1012.0
20260904211033 96 169 3.0 10.0 0.00 0.01 0.01 34 1011.9
20260904210532 97 103 4.0 10.0 0.00 0.01 0.01 33 1012.0
20260904210035 96 105 3.0 9.0 0.00 0.01 0.01 33 1012.1
20260904210031 97 221 3.0 9.0 0.00 0.01 0.01 33 1012.1
20260904205636 96 189 3.0 9.0 0.00 0.01 0.01 33 1012.2
20260904204532 96 146 3.0 12.0 0.00 0.01 0.01 33 1012.3
20260904204037 96 173 3.0 12.0 0.00 0.01 0.01 33 1012.3
20260904204031 96 150 3.0 12.0 0.00 0.01 0.01 33 1012.2
20260904203032 97 84 2.0 8.0 0.00 0.01 0.01 32 1012.3
20260904202532 97 108 2.0 8.0 0.00 0.01 0.01 32 1012.4
20260904202031 97 96 3.0 7.0 0.00 0.01 0.01 32 1012.4
20260904201530 97 192 3.0 10.0 0.00 0.01 0.01 32 1012.5
20260904201029 97 184 4.0 10.0 0.00 0.01 0.01 31 1012.5
20260904200529 96 180 4.0 13.0 0.00 0.01 0.01 31 1012.6
20260904200033 96 162 3.0 9.0 0.00 0.01 0.01 32 1012.7
20260904200029 95 126 4.0 13.0 0.00 0.01 0.01 32 1012.5
20260904195030 97 194 4.0 10.0 0.00 0.01 0.01 31 1012.8
20260904194533 96 236 3.0 9.0 0.00 0.01 0.01 31 1012.9
20260904194529 97 169 3.0 10.0 0.00 0.01 0.01 30 1012.8
20260904193529 94 89 3.0 9.0 0.00 0.01 0.01 31 1012.9
20260904193027 94 153 3.0 9.0 0.00 0.01 0.01 31 1013.0
20260904192526 94 161 3.0 7.0 0.00 0.01 0.01 31 1013.0
20260904192026 94 147 4.0 9.0 0.00 0.01 0.01 31 1013.2
20260904191525 94 189 3.0 9.0 0.00 0.01 0.01 31 1013.2
20260904191025 94 107 2.0 9.0 0.00 0.01 0.01 30 1013.3
20260904190525 94 180 2.0 8.0 0.00 0.01 0.01 30 1013.4
20260904190026 94 175 3.0 8.0 0.00 0.01 0.01 29 1013.5
20260904185523 94 158 3.0 8.0 0.00 0.01 0.01 29 1013.5
20260904185023 94 156 3.0 9.0 0.00 0.01 0.01 29 1013.5
20260904184523 94 134 2.0 9.0 0.00 0.01 0.01 28 1013.7
20260904184023 94 100 2.0 4.0 0.00 0.01 0.01 28 1013.6
20260904183523 94 154 3.0 9.0 0.00 0.01 0.01 28 1013.7
20260904183022 94 150 3.0 9.0 0.00 0.01 0.01 28 1013.7
20260904182523 94 172 3.0 10.0 0.00 0.01 0.01 26 1013.7
20260904182023 93 159 4.0 10.0 0.00 0.01 0.01 26 1013.7
20260904181522 93 174 3.0 7.0 0.00 0.01 0.01 25 1014.0
20260904181021 93 148 3.0 7.0 0.00 0.01 0.01 25 1014.0
20260904180523 93 171 3.0 8.0 0.00 0.01 0.01 26 1014.2
20260904180026 92 225 4.0 10.0 0.00 0.01 0.01 25 1014.2
20260904180021 93 180 3.0 8.0 0.00 0.01 0.01 24 1014.2
20260904175019 92 123 3.0 11.0 0.00 0.01 0.01 26 1014.3
20260904174519 92 159 2.0 11.0 0.00 0.01 0.01 25 1014.4
20260904174022 92 200 3.0 10.0 0.00 0.01 0.01 20 1014.5
20260904174017 92 240 3.0 10.0 0.00 0.01 0.01 24 1014.5
20260904173021 90 139 4.0 10.0 0.00 0.01 0.01 19 1014.6
20260904173017 91 223 4.0 9.0 0.00 0.01 0.01 18 1014.5
20260904172017 90 171 4.0 11.0 0.00 0.01 0.01 16 1014.6
20260904171514 90 169 3.0 11.0 0.00 0.01 0.01 14 1014.7